CAPE
1200 1343 1351 1288 1236 1376 1204 740 683 444 403 2565 2768 1427 806 851 1244 888 502 449 250 97 0 19 854 226 1048 415 274 513 303 1017 951 426 274 136 1846 698 359 478 729 707 662 510 500 580 528 572 822 767 748 727 750 724 672 669 643 686 738 762 789 847 934 910 929 1018 1120 1210 1246 1325 1405 1438 1488 1570
1776 1498 1398 1073 979 1058 1134 1066 711 2195 1076 1362 1632 1526 1281 1340 832 1123 845 828 315 768 284 4 480 728 1295 768 1388 902 302 712 403 406 353 111 846 529 312 411 430 596 536 372 196 148 181 217 349 407 439 445 380 279 252 321 396 388 468 512 559 620 724 768 815 935 1042 1120 1190 1241 1291 1289 1373 1442
1938 1988 1547 1411 1150 1203 972 1115 518 1014 1234 1268 1259 1220 1475 1492 1050 1095 1352 655 1204 95 378 904 464 641 882 157 291 544 575 988 390 351 78 177 1403 314 171 276 212 167 158 145 78 23 28 33 35 45 109 60 108 223 226 277 374 442 494 555 603 637 714 763 732 842 924 993 1089 1174 1243 1297 1284 1274
2073 2206 2051 1878 1626 1479 1200 1384 1314 1469 1714 1371 1280 1462 1542 1692 1491 1159 1279 968 1412 555 73 824 268 406 106 1165 550 360 563 223 122 16 460 1470 429 264 161 18 12 3 15 7 13 13 3 0 0 1 14 49 89 115 170 276 286 272 289 270 300 351 334 347 401 465 562 686 776 878 984 1065 1158 1177
2238 2284 2154 2200 1962 1695 1421 1273 1488 1081 1625 1410 1410 1244 1652 1590 1561 1353 1117 1132 1010 1181 551 553 437 263 494 659 917 695 588 102 99 6 378 784 400 28 214 170 0 0 0 0 0 0 0 0 0 0 0 6 34 73 62 66 81 57 106 128 124 102 106 158 221 251 341 449 462 556 676 723 886 909
2220 2459 2254 2162 2268 1862 1656 1404 1076 1098 726 1261 974 1105 1128 1242 1370 1341 1206 1002 1201 1277 754 563 617 677 165 453 382 939 454 291 532 45 68 928 560 525 162 115 32 0 0 0 0 0 0 0 0 0 0 0 0 0 2 16 0 1 14 18 19 34 42 72 93 53 124 152 250 262 362 463 528 587
2449 2441 2446 2182 2062 1941 1708 1593 1177 911 828 819 908 845 842 1105 1101 1478 1364 1288 1036 1028 1423 860 713 389 838 606 355 533 688 863 672 218 31 148 367 483 518 259 129 0 0 0 0 0 0 0 0 0 0 0 0 0 0 0 0 0 0 0 0 0 0 0 0 0 3 8 20 51 76 106 126 168
2704 2328 2465 2177 1842 1785 1743 1670 1476 1140 899 1136 1202 1018 1042 1151 1144 1565 1242 1422 1378 1258 982 1046 653 554 881 197 843 408 884 576 1009 613 335 258 314 433 451 366 302 393 0 0 0 0 0 0 0 0 0 0 0 0 0 0 0 0 0 0 0 0 0 0 0 0 0 0 0 0 0 0 33 81
2950 2516 2319 2298 2055 1822 1822 1818 1560 1241 880 972 1428 1064 1213 1229 1249 1303 1538 1212 1257 1542 1344 1618 978 1376 1022 760 560 971 558 602 818 955 807 639 598 762 494 257 291 1051 0 0 0 0 0 0 0 0 0 0 0 0 0 0 0 0 0 0 0 0 0 0 0 0 0 0 0 0 0 0 0 0
3153 2808 2440 2368 2298 2070 1838 1785 1613 1333 969 938 1244 1216 1087 1330 1235 1261 1697 1392 1280 985 1428 1534 1842 725 1270 1105 650 1011 858 829 532 916 916 860 944 1046 855 375 248 906 9 0 0 0 0 0 0 0 0 0 0 0 0 0 0 0 0 0 0 0 0 0 0 0 0 0 0 0 0 0 0 0
3270 2957 2718 2529 2472 2293 1994 1835 1687 1484 1097 935 1028 1346 1266 1339 1300 1182 1234 1811 1309 1046 994 1217 1483 1319 535 1246 1066 1049 987 755 951 759 876 835 967 1018 984 1004 596 176 249 67 1 0 0 0 0 0 0 0 0 0 0 0 0 0 0 0 0 0 0 0 0 0 0 0 0 0 0 0 0 0
3087 2959 2806 2566 2561 2468 2274 1910 1807 1672 1238 986 1004 1280 1524 1441 1424 1247 1152 1423 1504 1258 1015 938 1041 1211 1415 785 994 1346 1064 946 825 909 975 860 922 947 1178 992 1601 1230 1246 970 221 33 12 0 0 0 0 0 0 0 0 0 0 0 0 0 0 0 0 0 0 0 0 0 0 0 0 0 0 0
3295 3080 2812 2610 2552 2632 2391 1931 1726 1707 1359 1064 978 1207 1570 1613 1479 1435 1178 1266 1434 1371 1204 1142 1237 1254 1164 1178 806 908 1041 708 745 838 708 710 950 1130 1813 1706 1637 1886 1244 805 368 460 404 78 33 17 8 0 0 0 0 0 0 0 0 0 0 0 0 0 0 0 0 0 0 0 0 0 0 0
3509 3354 2979 2780 2556 2443 2391 2062 1659 1616 1468 1055 922 1146 1406 1554 1549 1555 1400 1301 1405 1446 1334 1277 1223 1166 1159 1094 1066 868 888 932 971 1308 1093 677 1148 1201 1364 1713 1600 1432 888 615 594 606 212 17 88 0 0 0 539 18 0 0 0 0 0 0 0 0 0 0 0 0 0 0 0 0 0 0 0 0
3608 3491 3183 3026 2776 2622 2535 2384 2046 1618 1578 1350 919 963 1176 1352 1496 1561 1559 1436 1371 1451 1416 1262 1258 1066 1051 1038 949 984 950 992 1263 1218 1119 853 1246 829 706 619 1134 1400 1017 821 600 480 400 25 0 0 0 0 0 0 0 0 0 0 0 0 0 0 0 0 0 0 0 0 0 0 0 0 0 0
3540 3489 3382 3216 3052 2734 2630 2475 2370 2163 1781 1509 1256 994 1054 1194 1273 1368 1492 1473 1469 1463 1443 1374 1213 1091 1045 1101 949 958 858 907 1150 1356 1190 1054 1233 988 762 684 696 974 796 710 287 392 336 28 0 3 0 0 0 0 0 0 0 0 0 0 0 0 0 0 0 0 0 0 0 0 0 0 0 0
3562 3453 3399 3308 3077 3006 2620 2528 2447 2364 2208 1887 1506 1212 1021 1078 1159 1229 1338 1385 1487 1503 1502 1366 1348 1200 1190 1224 1141 990 752 937 955 1208 1032 1104 1174 986 874 735 496 786 590 364 261 174 51 0 0 0 0 0 0 0 0 0 0 0 0 0 0 0 0 0 0 0 0 0 0 0 0 0 0 0
3429 3513 3378 3253 3130 2997 2889 2608 2457 2376 2295 2121 1839 1505 1198 1134 1161 1131 1184 1298 1388 1580 1622 1536 1394 1440 1358 1223 1238 1170 1008 1390 1010 1029 786 961 992 960 910 775 771 649 345 212 91 13 39 0 0 0 0 0 0 0 0 0 0 0 0 0 0 0 0 0 0 0 0 0 0 0 0 0 0 0
3496 3493 3537 3390 3203 3060 3148 2642 2514 2375 2297 2188 2035 1762 1432 1337 1402 1110 1040 1181 1304 1405 1544 1702 1574 1664 1438 1456 1642 1656 1140 1387 947 1011 828 963 912 964 824 637 617 235 108 71 0 1 33 0 0 0 0 0 3 0 0 0 0 0 0 0 0 0 0 0 0 0 0 0 0 0 0 0 0 0
3916 3591 3532 3512 3326 3138 3139 2974 2601 2476 2338 2220 2103 1953 1656 1335 1417 1421 1102 1010 1110 1281 1285 1416 1436 1426 1490 1231 1419 1266 1192 1280 1368 1292 1254 1079 832 644 488 440 259 195 134 4 0 0 0 0 0 0 0 0 0 56 0 0 0 0 0 0 0 0 0 0 0 0 0 0 0 0 0 0 0 0
4114 3947 3705 3590 3492 3277 3108 3072 2848 2579 2431 2271 2141 1999 1742 1486 1243 1318 1256 1016 938 1014 1040 1081 1192 1197 1091 964 872 796 714 1194 1097 728 659 673 528 506 356 197 51 1 0 0 0 0 0 0 0 0 0 0 0 0 0 0 0 0 0 0 0 0 0 0 0 0 0 0 0 0 0 0 0 0
4029 4049 3751 3640 3702 3512 3252 3005 3033 2728 2519 2369 2186 2014 1830 1615 1402 1208 1156 1176 941 792 782 808 865 878 874 867 811 656 562 841 838 692 536 554 257 332 138 33 3 0 0 0 0 0 0 0 0 0 0 0 0 0 0 0 0 0 0 0 0 0 0 0 0 0 0 0 0 0 0 0 0 0
3820 3956 3770 3627 3554 3634 3500 3168 3074 2867 2624 2379 2284 2083 1868 1670 1452 1332 1096 1221 1022 780 549 451 387 423 457 443 599 628 532 717 969 704 552 270 232 141 36 2 1 0 0 0 0 0 0 0 0 0 0 0 0 0 0 0 0 0 0 0 0 0 0 0 0 0 0 0 0 0 0 0 0 0
3678 3723 3953 3693 3621 3476 3428 3405 3186 2991 2738 2437 2516 2338 1951 1713 1640 1407 1192 1136 1124 956 682 444 232 149 96 266 410 315 538 666 879 668 503 370 286 152 61 0 1 0 0 0 0 0 0 0 0 0 0 0 0 0 0 0 0 0 0 0 0 0 0 0 0 0 0 0 0 0 0 0 0 0
3754 3760 3719 3791 3653 3570 3432 3392 3465 3260 2967 2681 2501 2526 2257 1896 1726 1504 1261 1093 1001 939 803 574 389 227 230 283 372 257 420 537 572 442 482 441 299 102 53 34 0 0 0 0 0 0 0 0 0 0 0 0 0 0 0 0 0 0 0 0 0 0 0 0 0 0 0 0 0 0 0 0 0 0
3800 3745 3796 3842 3735 3619 3566 3439 3462 3513 3348 3057 2725 2505 2292 2092 1821 1557 1289 1089 945 783 655 567 453 348 224 270 342 199 162 264 381 508 546 475 285 48 0 0 0 0 0 0 0 0 0 0 0 0 0 0 0 0 0 0 0 0 0 0 0 0 0 0 0 0 0 0 0 5 0 0 0 0
3806 3759 3577 3476 3426 3557 3604 3563 3482 3511 3512 3310 2986 2649 2380 2162 1947 1643 1325 1078 929 761 646 518 440 382 291 218 266 157 112 322 454 554 594 520 278 0 0 14 0 0 0 0 0 0 0 0 0 0 0 0 0 0 0 0 0 0 0 0 0 0 0 0 0 0 0 0 0 0 0 0 0 0
3780 3705 3640 3446 3266 3162 3166 3284 3403 3449 3432 3386 3159 2878 2682 2432 2096 1738 1390 1124 960 789 648 531 444 383 312 257 243 172 71 373 484 559 582 488 278 0 0 0 0 0 0 0 0 0 0 0 0 0 0 0 0 0 0 0 0 0 0 0 0 0 0 0 0 0 0 0 0 0 1 0 2 0
3584 3545 3408 3268 3175 3124 3078 3090 3182 3152 3172 3253 3175 2985 2847 2670 2394 2044 1650 1243 1034 851 710 585 488 406 338 234 166 183 54 357 454 605 622 484 182 0 0 0 0 0 0 0 0 0 0 0 0 0 0 0 0 0 0 0 0 0 0 0 0 0 0 0 0 0 0 0 0 0 0 0 1 0
3098 3286 3129 3170 3127 2968 2958 2924 3054 3097 3105 3148 3019 3044 2928 2747 2470 2154 1803 1484 1105 893 745 616 519 466 422 366 306 195 172 348 488 605 596 487 52 0 0 0 0 0 0 0 0 0 0 0 0 0 0 0 0 0 0 0 0 0 0 0 0 0 0 0 0 0 0 0 0 2 23 0 0 0
3116 3017 2964 2963 2949 2874 2775 2748 2773 2923 3007 3084 3094 2971 2919 2686 2500 2159 1890 1576 1246 884 660 524 510 480 438 402 352 323 316 413 531 596 619 486 216 0 0 0 0 0 0 0 0 0 0 0 0 0 0 0 0 0 0 0 0 0 0 0 0 0 0 0 0 0 0 0 1 5 0 0 0 0
3429 3305 3248 3201 3129 3066 2990 2881 2795 2724 2784 2894 2949 2888 2762 2562 2440 2288 2210 1864 1485 1218 976 814 607 414 370 372 366 350 381 448 519 573 576 493 230 0 0 0 0 0 0 0 0 0 0 0 0 0 0 0 0 0 0 0 0 0 0 0 0 0 0 0 0 0 0 48 0 0 0 0 0 0
3633 3577 3484 3381 3345 3335 3212 3023 2946 2870 2798 2668 2643 2658 2627 2567 2517 2500 2300 2089 1827 1662 1333 1069 831 675 481 301 365 378 428 451 492 503 526 452 252 14 0 0 0 0 0 0 0 0 0 0 0 0 0 0 0 0 0 0 0 0 0 0 0 0 0 0 0 0 15 0 0 0 0 0 0 0
3511 3482 3478 3417 3439 3488 3395 3228 3076 3010 2934 2800 2716 2616 2561 2450 2389 2386 2253 2122 1971 1772 1403 1248 918 746 581 536 390 430 436 438 419 399 484 182 49 5 0 0 0 0 0 0 0 0 0 0 0 0 0 0 0 0 0 0 0 0 0 0 0 0 0 0 0 0 0 0 0 0 0 0 0 0
3581 3531 3335 3255 3331 3416 3373 3323 3273 3233 3145 3013 2892 2791 2700 2596 2535 2072 1972 1807 1662 1327 1343 1234 1027 843 480 456 452 407 365 383 513 408 180 59 0 5 0 0 0 0 0 0 0 0 0 0 0 0 0 0 0 0 0 0 0 0 0 0 0 0 0 0 0 0 0 0 0 0 0 0 0 0
3564 3477 3456 3409 3510 3533 3466 3327 3260 3294 3344 3300 3089 2853 2660 2398 2525 2258 2015 1706 1565 1339 946 907 911 751 633 364 383 380 409 372 327 240 53 26 0 0 0 0 0 0 0 0 0 0 0 0 0 0 0 0 0 0 0 0 0 0 0 0 0 0 0 0 0 0 0 0 0 0 0 0 0 0
3298 3285 3141 3014 2968 2918 2925 2937 2984 2944 2948 3063 3002 2383 2577 2433 2281 1968 1903 1791 1521 1191 1039 831 685 618 668 451 412 378 348 280 329 256 23 10 1 0 0 0 0 0 0 0 0 0 0 0 0 0 0 0 0 0 0 0 0 0 0 0 0 0 0 0 0 0 0 0 0 0 0 0 0 0
2 29 171 397 637 936 1301 1666 2007 2212 2350 2449 2483 2557 2464 2326 2189 1707 1717 1389 1320 1230 939 725 657 529 425 413 470 315 258 397 473 20 1 0 0 0 0 0 0 0 0 0 0 0 0 0 0 0 0 0 0 0 0 6 0 0 0 0 0 0 0 0 0 0 0 0 0 1 0 0 0 0
0 2 6 14 67 335 654 941 1164 1317 1486 1683 1799 1956 2105 2057 2018 1902 1753 1393 1135 996 767 735 605 486 483 385 371 420 325 308 130 37 0 0 0 0 1 0 0 0 0 0 0 0 0 0 0 0 0 0 0 0 0 0 0 0 0 0 0 0 0 0 0 0 0 0 0 0 0 0 0 0
0 1 2 4 8 15 72 359 716 903 991 1127 1294 1399 1474 1573 1609 1693 1273 908 774 690 574 426 527 597 349 309 318 380 325 263 33 1 5 0 0 0 1 0 0 0 0 0 0 0 0 0 0 0 0 0 0 0 0 0 0 0 0 0 0 0 0 0 0 0 0 0 0 0 0 0 0 0
0 1 2 5 9 12 15 18 96 296 472 599 733 864 939 1038 1103 1103 870 510 551 501 472 372 283 293 262 226 286 292 269 223 18 5 0 0 2 0 0 0 0 0 0 0 0 0 0 0 0 0 0 0 0 0 0 0 0 0 0 0 0 0 0 0 0 0 0 0 0 0 0 0 0 0
0 0 0 0 2 2 3 10 64 189 267 274 292 325 394 404 414 465 448 332 281 233 178 296 474 176 155 253 310 190 100 4 19 2 1 2 0 0 0 0 0 0 0 0 0 0 0 2 0 0 0 0 0 0 0 0 0 0 0 0 0 0 0 0 0 0 0 0 0 0 0 0 0 0
4 1 1 1 0 0 0 0 2 32 60 75 178 310 265 215 179 183 73 29 9 5 153 629 296 199 101 206 92 5 2 2 1 0 0 0 0 0 0 0 0 0 0 0 0 0 0 0 0 0 0 0 0 0 0 0 0 0 0 0 0 0 0 0 0 0 0 0 0 0 0 0 0 0
41 12 4 14 60 96 71 56 51 22 4 0 0 0 0 17 0 11 2 2 27 169 69 13 45 153 14 4 3 2 0 0 0 0 0 0 0 0 0 0 0 0 0 0 0 0 0 0 0 0 0 0 0 0 0 0 0 0 0 0 0 0 0 0 0 0 0 0 0 0 0 0 0 0
72 47 12 11 10 18 20 2 1 1 1 0 0 0 0 0 0 0 0 9 55 126 16 3 12 6 2 0 0 0 0 0 0 0 2 2 0 0 0 0 0 0 0 0 0 0 0 0 0 0 0 0 0 0 0 0 0 0 0 0 0 0 0 0 0 0 0 0 0 0 0 0 0 0
Wind_Speed
8 8 8 7 8 7 9 13 13 18 17 14 17 20 21 18 15 14 15 14 12 nan nan nan 14 18 16 16 16 16 16 19 24 22 22 21 23 29 32 33 32 32 32 31 29 26 25 25 28 29 31 33 35 37 39 41 42 42 42 41 38 34 31 28 26 26 27 29 30 30 27 25 23 22
7 10 10 9 7 8 8 11 12 14 17 15 14 16 18 19 21 18 16 16 16 13 12 nan 16 17 17 17 16 17 18 24 26 23 23 24 26 34 35 34 33 32 32 31 28 25 25 26 28 30 32 35 37 39 41 42 42 42 42 40 37 34 31 29 27 26 26 27 28 30 29 26 23 22
10 10 12 11 10 9 8 10 13 12 16 16 16 17 18 19 20 21 21 19 17 nan 13 12 20 18 18 20 18 19 20 23 25 22 nan 22 32 36 33 34 33 32 32 31 nan nan nan nan nan nan 34 nan 38 40 41 42 41 40 40 40 38 35 33 30 28 26 26 26 26 28 30 30 26 23
12 12 12 14 13 12 10 10 12 14 15 17 19 19 20 20 21 22 22 22 19 20 nan 17 21 24 22 19 21 21 22 24 26 nan 24 28 36 34 32 nan nan nan nan nan nan nan nan nan nan nan nan nan nan 39 39 39 38 38 38 38 37 35 34 32 30 29 29 29 28 28 30 31 30 26
13 14 13 14 16 15 14 13 13 14 15 18 20 20 21 22 23 24 23 21 20 18 21 18 22 24 27 23 23 25 25 27 nan nan 27 33 33 nan 35 35 nan nan nan nan nan nan nan nan nan nan nan nan nan nan nan nan nan nan 37 36 36 36 36 36 36 34 33 32 30 29 29 30 31 29
14 16 16 14 16 18 17 17 17 15 17 19 20 21 22 23 24 25 24 22 20 20 21 21 19 20 28 25 24 25 27 29 29 nan nan 33 35 36 35 35 nan nan nan nan nan nan nan nan nan nan nan nan nan nan nan nan nan nan nan nan nan nan nan nan nan nan 35 34 32 30 29 29 30 31
16 16 18 17 16 18 18 19 19 18 17 19 21 22 23 23 24 25 25 23 22 21 21 25 24 25 28 29 29 28 28 29 33 34 nan 33 34 35 35 34 32 nan nan nan nan nan nan nan nan nan nan nan nan nan nan nan nan nan nan nan nan nan nan nan nan nan nan nan nan nan nan 29 29 31
17 17 18 19 18 17 19 19 19 19 18 18 20 22 23 24 24 24 26 25 23 24 23 25 27 28 29 29 32 33 31 32 34 35 35 35 34 36 36 34 30 36 nan nan nan nan nan nan nan nan nan nan nan nan nan nan nan nan nan nan nan nan nan nan nan nan nan nan nan nan nan nan nan nan
16 17 18 19 19 18 18 19 19 19 20 19 20 21 22 24 24 24 27 28 27 25 26 26 28 28 29 31 32 35 35 33 32 35 36 36 35 34 33 32 33 37 nan nan nan nan nan nan nan nan nan nan nan nan nan nan nan nan nan nan nan nan nan nan nan nan nan nan nan nan nan nan nan nan
17 16 17 19 20 18 18 19 21 21 21 20 20 22 22 23 25 25 25 29 29 29 27 27 29 30 31 31 31 33 35 36 35 34 34 33 33 35 35 34 31 34 nan nan nan nan nan nan nan nan nan nan nan nan nan nan nan nan nan nan nan nan nan nan nan nan nan nan nan nan nan nan nan nan
18 17 17 18 20 19 18 19 21 23 23 23 22 23 24 24 25 26 26 28 30 31 30 29 29 32 33 33 34 33 35 35 36 37 36 35 35 35 37 36 35 34 38 nan nan nan nan nan nan nan nan nan nan nan nan nan nan nan nan nan nan nan nan nan nan nan nan nan nan nan nan nan nan nan
20 19 18 19 20 20 20 20 22 24 25 25 25 25 26 27 27 27 27 27 29 31 31 31 32 32 35 35 34 35 37 36 35 36 38 38 38 38 39 40 39 37 38 38 38 nan nan nan nan nan nan nan nan nan nan nan nan nan nan nan nan nan nan nan nan nan nan nan nan nan nan nan nan nan
21 20 20 20 21 22 23 25 24 26 27 28 28 28 29 29 29 30 29 29 30 31 31 32 33 34 35 37 38 39 40 41 40 39 40 38 39 40 41 40 40 41 41 40 38 36 37 nan nan nan nan nan nan nan nan nan nan nan nan nan nan nan nan nan nan nan nan nan nan nan nan nan nan nan
23 22 21 20 23 26 28 28 29 29 31 31 31 32 32 32 32 32 32 31 31 31 32 33 36 36 37 39 40 41 42 42 42 42 45 44 42 41 41 41 41 42 42 42 40 38 38 nan nan nan nan nan 43 nan nan nan nan nan nan nan nan nan nan nan nan nan nan nan nan nan nan nan nan nan
24 24 23 21 23 25 27 29 32 31 32 33 32 34 34 34 35 35 35 34 34 33 33 34 36 38 39 41 42 44 44 45 47 47 48 48 49 48 47 44 42 44 45 44 44 39 37 nan nan nan nan nan nan nan nan nan nan nan nan nan nan nan nan nan nan nan nan nan nan nan nan nan nan nan
25 26 26 25 24 25 26 29 29 30 32 33 33 34 35 35 34 35 37 38 37 36 35 36 37 39 41 43 45 47 48 47 49 51 51 52 52 52 51 49 48 47 48 47 46 41 37 nan nan nan nan nan nan nan nan nan nan nan nan nan nan nan nan nan nan nan nan nan nan nan nan nan nan nan
28 27 27 27 27 25 31 31 31 32 31 33 36 35 35 35 35 34 36 38 39 39 38 38 39 41 44 45 47 50 52 52 53 54 54 55 55 55 54 53 52 52 50 49 47 44 nan nan nan nan nan nan nan nan nan nan nan nan nan nan nan nan nan nan nan nan nan nan nan nan nan nan nan nan
29 30 29 29 29 29 31 33 34 35 35 35 35 35 35 35 36 37 38 39 40 41 40 41 41 43 45 46 48 51 54 56 57 58 57 58 58 57 57 56 55 56 53 53 nan nan nan nan nan nan nan nan nan nan nan nan nan nan nan nan nan nan nan nan nan nan nan nan nan nan nan nan nan nan
29 29 30 30 30 32 33 35 38 38 37 36 36 37 37 38 39 39 39 39 39 40 41 42 42 44 47 47 50 53 55 58 59 60 60 61 60 59 58 58 58 59 55 nan nan nan nan nan nan nan nan nan nan nan nan nan nan nan nan nan nan nan nan nan nan nan nan nan nan nan nan nan nan nan
28 28 29 30 31 32 33 37 43 43 41 40 39 38 37 38 38 39 40 43 43 42 43 43 45 46 47 50 51 54 56 58 60 62 62 62 63 63 62 62 62 59 56 nan nan nan nan nan nan nan nan nan nan nan nan nan nan nan nan nan nan nan nan nan nan nan nan nan nan nan nan nan nan nan
29 29 29 30 30 32 33 39 44 45 48 42 42 40 40 39 39 37 38 41 44 45 45 45 46 49 50 54 55 57 60 61 62 64 64 64 66 67 65 65 nan nan nan nan nan nan nan nan nan nan nan nan nan nan nan nan nan nan nan nan nan nan nan nan nan nan nan nan nan nan nan nan nan nan
29 30 33 32 31 32 33 40 45 47 50 44 43 42 43 43 41 39 41 42 40 44 47 47 47 51 52 54 57 58 61 65 65 65 65 66 66 65 65 nan nan nan nan nan nan nan nan nan nan nan nan nan nan nan nan nan nan nan nan nan nan nan nan nan nan nan nan nan nan nan nan nan nan nan
31 31 33 35 33 32 35 42 44 47 49 46 45 44 44 45 45 44 46 44 44 46 48 47 48 49 53 55 56 57 64 67 66 64 64 65 64 64 nan nan nan nan nan nan nan nan nan nan nan nan nan nan nan nan nan nan nan nan nan nan nan nan nan nan nan nan nan nan nan nan nan nan nan nan
34 34 34 35 35 34 37 45 45 45 47 45 46 46 46 45 45 47 50 49 48 49 51 52 51 51 nan 54 57 59 61 64 64 64 62 62 62 62 nan nan nan nan nan nan nan nan nan nan nan nan nan nan nan nan nan nan nan nan nan nan nan nan nan nan nan nan nan nan nan nan nan nan nan nan
34 35 36 35 39 39 40 46 49 48 45 44 44 46 45 46 46 52 52 54 56 54 54 55 55 55 55 55 57 59 60 60 61 61 60 60 61 63 nan nan nan nan nan nan nan nan nan nan nan nan nan nan nan nan nan nan nan nan nan nan nan nan nan nan nan nan nan nan nan nan nan nan nan nan
33 35 38 38 39 44 46 47 51 52 50 46 43 43 44 46 52 55 54 56 56 56 56 56 56 57 59 59 59 59 59 59 60 61 60 60 60 nan nan nan nan nan nan nan nan nan nan nan nan nan nan nan nan nan nan nan nan nan nan nan nan nan nan nan nan nan nan nan nan nan nan nan nan nan
32 35 37 37 38 45 49 51 53 55 54 50 45 44 45 49 55 56 56 57 58 58 59 60 57 57 59 60 61 61 60 59 61 61 61 61 60 nan nan nan nan nan nan nan nan nan nan nan nan nan nan nan nan nan nan nan nan nan nan nan nan nan nan nan nan nan nan nan nan nan nan nan nan nan
34 36 39 41 38 43 48 51 54 56 57 53 52 48 48 53 57 56 57 59 60 62 62 61 59 57 58 60 62 62 nan 59 60 61 63 64 64 nan nan nan nan nan nan nan nan nan nan nan nan nan nan nan nan nan nan nan nan nan nan nan nan nan nan nan nan nan nan nan nan nan nan nan nan nan
37 39 41 41 40 42 47 49 51 51 54 57 57 56 54 57 57 58 59 60 62 63 62 61 59 59 60 61 62 63 nan 60 62 63 63 65 65 nan nan nan nan nan nan nan nan nan nan nan nan nan nan nan nan nan nan nan nan nan nan nan nan nan nan nan nan nan nan nan nan nan nan nan nan nan
38 41 44 43 43 47 49 50 49 48 49 54 59 61 62 61 59 59 60 61 62 61 61 62 61 61 60 59 60 63 63 63 65 66 66 68 nan nan nan nan nan nan nan nan nan nan nan nan nan nan nan nan nan nan nan nan nan nan nan nan nan nan nan nan nan nan nan nan nan nan nan nan nan nan
39 43 45 46 45 48 53 54 53 51 52 54 57 58 62 63 62 62 62 63 63 61 61 61 62 63 65 65 66 66 66 65 66 67 69 72 73 nan nan nan nan nan nan nan nan nan nan nan nan nan nan nan nan nan nan nan nan nan nan nan nan nan nan nan nan nan nan nan nan nan nan nan nan nan
45 47 48 48 47 52 57 56 54 53 54 56 59 61 61 60 62 64 65 65 67 66 64 66 67 68 69 70 70 71 70 69 70 71 72 74 75 nan nan nan nan nan nan nan nan nan nan nan nan nan nan nan nan nan nan nan nan nan nan nan nan nan nan nan nan nan nan nan nan nan nan nan nan nan
48 51 52 51 52 55 55 57 58 58 57 57 61 63 64 64 63 64 67 68 68 68 70 71 72 71 71 70 72 72 72 71 72 71 73 75 76 nan nan nan nan nan nan nan nan nan nan nan nan nan nan nan nan nan nan nan nan nan nan nan nan nan nan nan nan nan nan nan nan nan nan nan nan nan
51 54 53 53 53 55 57 57 58 58 60 60 63 62 62 62 62 62 65 67 67 68 70 73 74 73 73 72 72 71 72 73 72 71 73 73 nan nan nan nan nan nan nan nan nan nan nan nan nan nan nan nan nan nan nan nan nan nan nan nan nan nan nan nan nan nan nan nan nan nan nan nan nan nan
59 55 54 55 56 56 57 57 56 57 59 62 62 61 62 62 62 63 65 67 70 72 75 75 74 74 72 70 69 70 71 73 72 69 69 nan nan nan nan nan nan nan nan nan nan nan nan nan nan nan nan nan nan nan nan nan nan nan nan nan nan nan nan nan nan nan nan nan nan nan nan nan nan nan
58 59 58 58 57 58 58 58 57 58 59 60 62 62 63 64 64 65 68 72 76 79 80 78 78 76 73 70 67 67 69 70 69 69 nan nan nan nan nan nan nan nan nan nan nan nan nan nan nan nan nan nan nan nan nan nan nan nan nan nan nan nan nan nan nan nan nan nan nan nan nan nan nan nan
61 62 61 59 57 57 57 58 60 61 60 59 59 64 65 64 64 65 69 74 74 75 77 78 77 76 74 72 70 70 71 70 67 67 nan nan nan nan nan nan nan nan nan nan nan nan nan nan nan nan nan nan nan nan nan nan nan nan nan nan nan nan nan nan nan nan nan nan nan nan nan nan nan nan
nan nan 59 58 57 57 57 58 60 62 61 60 58 60 62 61 63 67 73 73 72 75 77 75 74 73 73 72 70 68 67 66 67 nan nan nan nan nan nan nan nan nan nan nan nan nan nan nan nan nan nan nan nan nan nan nan nan nan nan nan nan nan nan nan nan nan nan nan nan nan nan nan nan nan
nan nan nan nan nan 57 56 56 57 58 59 58 57 58 59 60 62 65 70 72 74 76 78 77 76 75 74 69 65 63 60 59 63 nan nan nan nan nan nan nan nan nan nan nan nan nan nan nan nan nan nan nan nan nan nan nan nan nan nan nan nan nan nan nan nan nan nan nan nan nan nan nan nan nan
nan nan nan nan nan nan nan 51 52 55 57 57 56 56 56 56 58 60 63 70 74 77 76 77 78 76 72 68 63 58 54 57 nan nan nan nan nan nan nan nan nan nan nan nan nan nan nan nan nan nan nan nan nan nan nan nan nan nan nan nan nan nan nan nan nan nan nan nan nan nan nan nan nan nan
nan nan nan nan nan nan nan nan nan 53 53 54 54 54 54 57 59 62 67 72 72 72 72 73 74 71 66 64 61 57 56 58 nan nan nan nan nan nan nan nan nan nan nan nan nan nan nan nan nan nan nan nan nan nan nan nan nan nan nan nan nan nan nan nan nan nan nan nan nan nan nan nan nan nan
nan nan nan nan nan nan nan nan nan 50 50 51 52 53 55 56 57 60 61 63 67 70 66 66 71 68 56 51 54 54 nan nan nan nan nan nan nan nan nan nan nan nan nan nan nan nan nan nan nan nan nan nan nan nan nan nan nan nan nan nan nan nan nan nan nan nan nan nan nan nan nan nan nan nan
nan nan nan nan nan nan nan nan nan nan nan nan 50 54 56 56 60 63 nan nan nan nan 56 58 68 63 47 42 nan nan nan nan nan nan nan nan nan nan nan nan nan nan nan nan nan nan nan nan nan nan nan nan nan nan nan nan nan nan nan nan nan nan nan nan nan nan nan nan nan nan nan nan nan nan
nan nan nan nan nan nan nan nan nan nan nan nan nan nan nan nan nan nan nan nan nan 45 nan nan nan 60 nan nan nan nan nan nan nan nan nan nan nan nan nan nan nan nan nan nan nan nan nan nan nan nan nan nan nan nan nan nan nan nan nan nan nan nan nan nan nan nan nan nan nan nan nan nan nan nan
nan nan nan nan nan nan nan nan nan nan nan nan nan nan nan nan nan nan nan nan nan 33 nan nan nan nan nan nan nan nan nan nan nan nan nan nan nan nan nan nan nan nan nan nan nan nan nan nan nan nan nan nan nan nan nan nan nan nan nan nan nan nan nan nan nan nan nan nan nan nan nan nan nan nan
Wind_Direction
340 330 353 9 24 35 19 8 6 359 9 2 3 356 360 359 359 355 350 350 353 nan nan nan 320 321 312 314 310 313 320 319 328 330 334 341 334 344 347 350 351 352 353 354 355 355 353 353 354 357 357 356 356 355 354 353 352 354 354 352 351 350 347 341 335 328 323 320 319 318 316 312 306 298
326 325 331 342 358 3 15 357 1 351 354 354 2 1 356 354 358 354 354 353 352 340 343 nan 319 322 315 316 315 317 323 324 331 330 335 339 334 339 344 346 347 348 349 350 351 347 347 350 351 352 352 352 352 352 352 351 351 352 352 351 350 348 346 340 336 331 326 321 317 315 315 313 309 303
322 321 328 325 338 338 347 346 349 351 348 351 358 1 357 357 353 356 352 350 354 nan 335 316 311 317 324 326 327 322 317 325 335 328 nan 326 326 332 337 341 341 344 346 347 nan nan nan nan nan nan 348 nan 350 350 349 348 348 349 349 349 347 345 343 336 330 328 324 318 313 310 310 310 310 306
312 319 321 323 326 329 332 338 339 346 345 349 356 357 359 358 355 355 357 354 354 350 nan 334 331 329 339 334 333 327 322 329 335 nan 327 323 324 325 329 nan nan nan nan nan nan nan nan nan nan nan nan nan nan 347 347 346 346 347 348 347 345 342 337 331 329 327 323 318 313 308 305 305 306 305
304 311 316 318 322 324 330 333 336 341 343 345 349 355 354 356 356 356 357 355 354 349 347 344 344 343 335 337 334 328 324 320 nan nan 326 323 326 nan 330 331 nan nan nan nan nan nan nan nan nan nan nan nan nan nan nan nan nan nan 348 346 341 337 333 331 330 328 325 321 316 310 305 301 301 301
300 301 310 316 316 322 328 329 336 339 344 342 345 348 351 351 352 354 354 356 351 350 341 348 347 339 339 334 335 330 328 327 327 nan nan 331 332 333 333 333 nan nan nan nan nan nan nan nan nan nan nan nan nan nan nan nan nan nan nan nan nan nan nan nan nan nan 329 325 319 312 305 299 296 295
301 300 304 313 313 313 322 326 330 335 339 339 342 344 344 346 346 346 349 347 351 350 344 340 342 343 346 342 343 340 337 335 336 337 nan 340 337 336 338 338 334 nan nan nan nan nan nan nan nan nan nan nan nan nan nan nan nan nan nan nan nan nan nan nan nan nan nan nan nan nan nan 304 298 294
306 305 301 307 312 312 317 319 322 325 328 332 334 338 337 339 341 339 339 342 341 343 348 339 340 340 339 342 342 346 342 343 341 342 342 343 343 342 341 342 340 339 nan nan nan nan nan nan nan nan nan nan nan nan nan nan nan nan nan nan nan nan nan nan nan nan nan nan nan nan nan nan nan nan
307 304 302 302 305 309 312 313 315 318 323 325 325 331 331 333 334 334 333 336 336 338 341 339 339 338 338 339 342 342 342 344 344 342 344 344 346 345 343 343 346 344 nan nan nan nan nan nan nan nan nan nan nan nan nan nan nan nan nan nan nan nan nan nan nan nan nan nan nan nan nan nan nan nan
305 299 299 298 302 307 310 310 311 312 317 317 319 322 325 325 327 330 328 330 332 335 334 335 333 336 334 334 339 339 339 340 343 342 341 342 343 344 345 346 346 334 nan nan nan nan nan nan nan nan nan nan nan nan nan nan nan nan nan nan nan nan nan nan nan nan nan nan nan nan nan nan nan nan
305 301 296 297 302 307 308 307 308 310 313 314 316 317 319 320 322 326 327 326 328 330 332 332 331 330 334 330 332 334 335 337 338 340 340 344 344 345 346 346 344 336 334 nan nan nan nan nan nan nan nan nan nan nan nan nan nan nan nan nan nan nan nan nan nan nan nan nan nan nan nan nan nan nan
311 308 305 306 307 311 309 309 306 309 311 309 311 311 311 314 318 321 323 324 324 326 329 331 329 328 328 330 326 326 329 332 336 338 336 341 341 344 345 345 342 336 331 333 336 nan nan nan nan nan nan nan nan nan nan nan nan nan nan nan nan nan nan nan nan nan nan nan nan nan nan nan nan nan
320 314 312 311 314 315 320 324 318 316 313 308 310 309 309 311 314 314 318 322 322 323 325 327 325 325 327 326 327 328 328 333 336 331 332 333 333 335 337 339 340 337 336 335 333 332 326 nan nan nan nan nan nan nan nan nan nan nan nan nan nan nan nan nan nan nan nan nan nan nan nan nan nan nan
331 327 321 317 325 324 326 328 329 325 322 320 312 308 309 310 311 312 314 317 319 321 324 324 323 325 326 325 325 327 327 327 326 326 328 332 328 324 327 331 335 336 337 334 332 331 325 nan nan nan nan nan 335 nan nan nan nan nan nan nan nan nan nan nan nan nan nan nan nan nan nan nan nan nan
336 333 329 320 321 323 324 327 330 327 324 322 319 316 315 312 312 311 313 313 315 318 321 320 320 322 323 323 322 323 323 323 325 326 324 326 324 326 327 330 328 333 334 335 329 326 322 nan nan nan nan nan nan nan nan nan nan nan nan nan nan nan nan nan nan nan nan nan nan nan nan nan nan nan
341 340 336 332 323 321 323 318 319 323 322 320 319 316 316 317 319 316 312 310 311 315 316 317 319 318 319 319 320 320 320 321 321 322 321 323 322 323 324 326 327 328 332 331 327 326 321 nan nan nan nan nan nan nan nan nan nan nan nan nan nan nan nan nan nan nan nan nan nan nan nan nan nan nan
345 343 340 337 334 327 330 324 319 317 315 316 320 316 316 317 319 317 316 314 311 311 314 315 315 317 314 316 318 317 317 317 319 318 319 319 320 320 321 322 321 322 326 327 326 324 nan nan nan nan nan nan nan nan nan nan nan nan nan nan nan nan nan nan nan nan nan nan nan nan nan nan nan nan
344 344 340 338 336 332 326 328 329 325 322 316 310 310 307 308 315 317 317 316 318 313 311 311 313 312 311 313 314 314 312 313 316 316 318 317 317 318 319 317 317 317 321 324 nan nan nan nan nan nan nan nan nan nan nan nan nan nan nan nan nan nan nan nan nan nan nan nan nan nan nan nan nan nan
341 339 337 336 334 329 328 327 332 328 329 325 320 317 316 313 312 312 310 307 307 308 308 309 309 307 309 309 308 308 310 310 312 313 315 315 314 314 314 314 313 314 319 nan nan nan nan nan nan nan nan nan nan nan nan nan nan nan nan nan nan nan nan nan nan nan nan nan nan nan nan nan nan nan
335 334 332 329 328 326 326 327 331 326 324 325 326 325 323 319 316 316 317 317 315 311 308 306 306 306 306 308 306 305 306 306 306 306 306 308 309 311 312 313 311 313 317 nan nan nan nan nan nan nan nan nan nan nan nan nan nan nan nan nan nan nan nan nan nan nan nan nan nan nan nan nan nan nan
333 330 328 325 323 323 323 322 324 323 320 321 325 326 324 320 317 315 314 320 321 317 314 311 309 308 309 308 307 308 308 306 305 303 305 307 309 310 313 312 nan nan nan nan nan nan nan nan nan nan nan nan nan nan nan nan nan nan nan nan nan nan nan nan nan nan nan nan nan nan nan nan nan nan
324 328 333 329 325 323 320 318 319 318 316 316 320 322 321 317 316 316 313 308 312 316 314 312 312 305 303 307 310 309 309 308 305 305 309 310 311 313 315 nan nan nan nan nan nan nan nan nan nan nan nan nan nan nan nan nan nan nan nan nan nan nan nan nan nan nan nan nan nan nan nan nan nan nan
319 320 323 332 332 326 317 313 315 317 316 314 314 316 313 314 319 319 313 309 309 308 304 302 298 297 300 300 301 304 309 308 307 305 307 310 312 313 nan nan nan nan nan nan nan nan nan nan nan nan nan nan nan nan nan nan nan nan nan nan nan nan nan nan nan nan nan nan nan nan nan nan nan nan
318 320 318 322 331 331 319 313 316 317 319 314 310 308 308 312 319 311 308 309 308 309 310 308 304 302 nan 297 297 298 301 304 306 306 308 310 311 312 nan nan nan nan nan nan nan nan nan nan nan nan nan nan nan nan nan nan nan nan nan nan nan nan nan nan nan nan nan nan nan nan nan nan nan nan
314 315 315 313 317 325 323 317 319 320 321 317 307 306 309 314 311 304 305 309 311 306 307 307 306 302 300 300 298 299 300 302 305 306 306 309 310 312 nan nan nan nan nan nan nan nan nan nan nan nan nan nan nan nan nan nan nan nan nan nan nan nan nan nan nan nan nan nan nan nan nan nan nan nan
308 309 306 306 311 316 319 318 319 323 322 321 308 309 314 311 303 303 302 301 301 300 301 301 302 304 305 305 304 304 304 304 304 304 304 307 311 nan nan nan nan nan nan nan nan nan nan nan nan nan nan nan nan nan nan nan nan nan nan nan nan nan nan nan nan nan nan nan nan nan nan nan nan nan
302 299 298 298 302 309 314 319 319 318 322 316 316 318 310 306 305 303 298 298 300 301 303 305 308 308 307 308 307 306 305 304 305 306 305 306 307 nan nan nan nan nan nan nan nan nan nan nan nan nan nan nan nan nan nan nan nan nan nan nan nan nan nan nan nan nan nan nan nan nan nan nan nan nan
296 294 294 293 299 304 310 316 317 316 317 316 325 323 313 308 305 301 300 300 303 305 306 310 311 311 311 311 311 311 nan 305 307 309 309 307 307 nan nan nan nan nan nan nan nan nan nan nan nan nan nan nan nan nan nan nan nan nan nan nan nan nan nan nan nan nan nan nan nan nan nan nan nan nan
297 297 298 299 301 301 304 310 312 311 319 324 323 325 319 308 303 304 302 302 302 305 310 311 310 309 311 313 314 310 nan 302 302 305 306 305 305 nan nan nan nan nan nan nan nan nan nan nan nan nan nan nan nan nan nan nan nan nan nan nan nan nan nan nan nan nan nan nan nan nan nan nan nan nan
311 304 302 302 299 296 298 299 300 304 315 323 325 325 320 304 306 305 304 302 304 307 307 305 304 304 302 301 299 299 299 300 304 305 305 304 nan nan nan nan nan nan nan nan nan nan nan nan nan nan nan nan nan nan nan nan nan nan nan nan nan nan nan nan nan nan nan nan nan nan nan nan nan nan
286 286 288 293 299 298 302 305 308 315 319 319 318 313 310 308 306 305 304 304 303 301 299 298 297 295 294 293 293 296 298 300 301 303 303 302 302 nan nan nan nan nan nan nan nan nan nan nan nan nan nan nan nan nan nan nan nan nan nan nan nan nan nan nan nan nan nan nan nan nan nan nan nan nan
293 294 294 296 295 294 293 295 298 306 310 312 310 308 306 305 306 307 308 303 298 298 299 297 296 294 294 296 296 294 295 298 299 301 301 300 300 nan nan nan nan nan nan nan nan nan nan nan nan nan nan nan nan nan nan nan nan nan nan nan nan nan nan nan nan nan nan nan nan nan nan nan nan nan
292 292 294 295 297 298 301 302 303 306 308 308 306 307 306 305 305 303 298 297 297 297 294 293 293 293 293 293 293 294 295 297 298 298 298 297 297 nan nan nan nan nan nan nan nan nan nan nan nan nan nan nan nan nan nan nan nan nan nan nan nan nan nan nan nan nan nan nan nan nan nan nan nan nan
288 291 295 299 302 303 304 307 308 309 306 305 302 302 306 304 301 300 298 297 297 294 292 289 290 290 291 291 292 293 294 294 295 296 297 296 nan nan nan nan nan nan nan nan nan nan nan nan nan nan nan nan nan nan nan nan nan nan nan nan nan nan nan nan nan nan nan nan nan nan nan nan nan nan
291 294 296 298 299 301 303 306 308 308 306 304 304 303 301 298 298 296 295 294 293 292 290 289 289 287 287 288 290 291 291 293 293 294 294 nan nan nan nan nan nan nan nan nan nan nan nan nan nan nan nan nan nan nan nan nan nan nan nan nan nan nan nan nan nan nan nan nan nan nan nan nan nan nan
293 295 297 298 300 300 302 305 306 305 305 305 303 301 298 297 298 301 300 295 292 291 291 290 288 285 285 285 287 286 286 286 287 290 nan nan nan nan nan nan nan nan nan nan nan nan nan nan nan nan nan nan nan nan nan nan nan nan nan nan nan nan nan nan nan nan nan nan nan nan nan nan nan nan
295 297 299 300 301 302 303 304 304 305 306 306 302 300 301 303 305 304 300 296 295 295 295 293 291 288 285 284 283 283 283 285 287 288 nan nan nan nan nan nan nan nan nan nan nan nan nan nan nan nan nan nan nan nan nan nan nan nan nan nan nan nan nan nan nan nan nan nan nan nan nan nan nan nan
nan nan 299 301 302 302 303 303 303 304 305 304 301 300 303 305 304 303 300 300 302 297 295 294 292 289 286 284 283 283 283 283 283 nan nan nan nan nan nan nan nan nan nan nan nan nan nan nan nan nan nan nan nan nan nan nan nan nan nan nan nan nan nan nan nan nan nan nan nan nan nan nan nan nan
nan nan nan nan nan 299 300 301 302 303 303 302 303 305 305 305 304 302 302 304 302 299 296 294 292 291 288 283 282 285 285 283 283 nan nan nan nan nan nan nan nan nan nan nan nan nan nan nan nan nan nan nan nan nan nan nan nan nan nan nan nan nan nan nan nan nan nan nan nan nan nan nan nan nan
nan nan nan nan nan nan nan 297 297 297 297 299 301 301 301 300 300 301 303 303 300 297 295 293 291 290 285 279 278 279 275 273 nan nan nan nan nan nan nan nan nan nan nan nan nan nan nan nan nan nan nan nan nan nan nan nan nan nan nan nan nan nan nan nan nan nan nan nan nan nan nan nan nan nan
nan nan nan nan nan nan nan nan nan 295 296 297 298 300 304 306 308 309 307 303 298 295 292 288 286 285 281 273 273 277 274 268 nan nan nan nan nan nan nan nan nan nan nan nan nan nan nan nan nan nan nan nan nan nan nan nan nan nan nan nan nan nan nan nan nan nan nan nan nan nan nan nan nan nan
nan nan nan nan nan nan nan nan nan 295 297 299 301 303 305 308 310 312 309 306 301 296 289 286 288 288 281 270 264 264 nan nan nan nan nan nan nan nan nan nan nan nan nan nan nan nan nan nan nan nan nan nan nan nan nan nan nan nan nan nan nan nan nan nan nan nan nan nan nan nan nan nan nan nan
nan nan nan nan nan nan nan nan nan nan nan nan 304 306 308 307 305 303 nan nan nan nan 267 280 286 282 276 271 nan nan nan nan nan nan nan nan nan nan nan nan nan nan nan nan nan nan nan nan nan nan nan nan nan nan nan nan nan nan nan nan nan nan nan nan nan nan nan nan nan nan nan nan nan nan
nan nan nan nan nan nan nan nan nan nan nan nan nan nan nan nan nan nan nan nan nan 275 nan nan nan 267 nan nan nan nan nan nan nan nan nan nan nan nan nan nan nan nan nan nan nan nan nan nan nan nan nan nan nan nan nan nan nan nan nan nan nan nan nan nan nan nan nan nan nan nan nan nan nan nan
nan nan nan nan nan nan nan nan nan nan nan nan nan nan nan nan nan nan nan nan nan 279 nan nan nan nan nan nan nan nan nan nan nan nan nan nan nan nan nan nan nan nan nan nan nan nan nan nan nan nan nan nan nan nan nan nan nan nan nan nan nan nan nan nan nan nan nan nan nan nan nan nan nan nan